Regional Weather Roundup
Issued by NWS

Home | Current Version | Previous Version | Text Only | Print | Product List | Glossary Off
Versions: 1 2 3 4 5 6 7 8 9 10 11 12 13 14 15 16 17 18 19 20 21 22 23 24 25 26 27 28 29 30 31 32 33 34 35 36 37 38 39 40 41 42 43 44 45 46 47 48 49 50

000
ASUS45 KPSR 251600
RWRAZ

PRELIMINARY ARIZONA REGIONAL HOURLY WEATHER ROUNDUP
NATIONAL WEATHER SERVICE PHOENIX AZ
900 AM MST SUN JAN 25 2015

NOTE: FAIR INDICATES FEW OR NO CLOUDS BELOW 12,000 FEET WITH NO
SIGNIFICANT WEATHER AND/OR OBSTRUCTIONS TO VISIBILITY.

AZZ001>003-036-251700-
NORTHWEST ARIZONA

CITY           SKY/WX    TMP DP  RH WIND       PRES   REMARKS
BULLHEAD CITY  SUNNY     63  34  34 N26G35    30.18S
KINGMAN        SUNNY     48  22  35 CALM      30.26S
$$

AZZ004>008-015-016-018-251700-
NORTH CENTRAL ARIZONA

CITY           SKY/WX    TMP DP  RH WIND       PRES   REMARKS
GRAND CANYON   SUNNY     45  22  40 NE9       30.35S
PRESCOTT       MOSUNNY   37  20  50 S6        30.27S WCI  32
FLAGSTAFF      NOT AVBL
PAYSON         SUNNY     46  18  31 NE10      30.26F
$$

AZZ009>014-017-251700-
NORTHEAST ARIZONA

CITY           SKY/WX    TMP DP  RH WIND       PRES   REMARKS
WINSLOW        NOT AVBL
SAINT JOHNS    SUNNY     31  22  69 S3        30.34R
WINDOW ROCK    SUNNY     30  19  63 NE3       30.33R
$$

AZZ023-251700-
GREATER PHOENIX AREA

CITY           SKY/WX    TMP DP  RH WIND       PRES   REMARKS
PHOENIX        MOSUNNY   53  22  29 E7        30.11R
GLENDALE       MOSUNNY   48  27  43 CALM      30.13R
LUKE AFB       NOT AVBL
DEER VALLEY    SUNNY     54  21  27 CALM      30.12R
SCOTTSDALE     SUNNY     52  25  35 CALM      30.13R
MESA-FALCON    MOSUNNY   52  19  28 NE6       30.12R
MESA-GATEWAY   MOSUNNY   43  25  49 CALM      30.14S
CHANDLER       PTSUNNY   45  27  49 CALM      30.13R
$$

AZZ027-028-251700-
SOUTHWEST MARICOPA COUNTY AND PINAL COUNTY

CITY           SKY/WX    TMP DP  RH WIND       PRES   REMARKS
CASA GRANDE    PTSUNNY   57  18  21 E9        30.12R
GILA BEND      FAIR      50  18  28 NW3       30.09R
$$

AZZ503-504-507>509-251700-
SOUTHEAST ARIZONA

CITY           SKY/WX    TMP DP  RH WIND       PRES   REMARKS
TUCSON         CLOUDY    56  10  16 E8        30.13F
DAVIS-MONTHAN  CLOUDY    53  14  21 SE9       30.12R
NOGALES        CLOUDY    51  16  24 NE6       30.13S
SIERRA VISTA   CLOUDY    47  15  27 E3        30.18R
DOUGLAS        PTSUNNY   45  15  30 CALM      30.20R
SAFFORD        PTSUNNY   42  20  41 SE7       30.24R
$$

AZZ020-021-025-026-031-251700-
SOUTHWEST ARIZONA

CITY           SKY/WX    TMP DP  RH WIND       PRES   REMARKS
YUMA           PTSUNNY   57  25  29 N12       30.07S
$$

CAZ031-033-041-043-047-048-061-251700-
SOUTHERN CALIFORNIA

CITY           SKY/WX    TMP DP  RH WIND       PRES   REMARKS
DOWNTOWN L.A.  SUNNY     51  37  58 CALM      30.02S
L.A. AIRPORT   MOSUNNY   56  33  42 CALM      30.03S
SAN DIEGO      MOSUNNY   58  35  42 CALM      30.05R
BURBANK        SUNNY     54  27  35 W5        30.03F
ONTARIO        MOSUNNY   70  25  18 N8        30.04S
RIVERSIDE      SUNNY     55  25  31 E5        30.07S
PALM SPRINGS   SUNNY     65  23  20 CALM      30.14R
EL CENTRO NAS  SUNNY     49  22  34 W5        30.10R
IMPERIAL       SUNNY     50  25  37 W5        30.09S
BLYTHE         SUNNY     54  27  35 NE8       30.12S
NEEDLES        SUNNY     63  32  31 N18       30.17S
$$

NVZ020-UTZ003-251700-
SOUTHERN NEVADA-UTAH

CITY           SKY/WX    TMP DP  RH WIND       PRES   REMARKS
LAS VEGAS      SUNNY     50  26  39 SW8       30.25S
SALT LAKE CITY PTSUNNY   35  29  78 CALM      30.47R
$$

NMZ009-TXZ055-251700-
NEW MEXICO-WEST TEXAS

CITY           SKY/WX    TMP DP  RH WIND       PRES   REMARKS
ALBUQUERQUE    MOSUNNY   34  20  56 NW6       30.32R WCI  29
EL PASO        PTSUNNY   40  27  59 N5        30.27R
$$


........................KEY........................
SKY/WX - SKY CONDITION/WEATHER
TMP    - TEMPERATURE IN FAHRENHEIT
DP     - DEW POINT IN FAHRENHEIT
RH     - RELATIVE HUMIDITY IN PERCENT
WIND   - DIRECTION AND SPEED IN MILES PER HOUR (MPH)
VRB    - VARIABLE WIND DIRECTION
PRES   - MEAN SEA LEVEL PRESSURE IN INCHES OF MERCURY
         F - FALLING PRESSURE   R - RISING PRESSURE
         S - STEADY PRESSURE
VSB    - VISIBILITY IN MILES
HX     - HEAT INDEX IN FAHRENHEIT
WCI    - WIND CHILL INDEX IN FAHRENHEIT
TC     - TEMPERATURE IN CELSIUS WHICH IS ALSO KNOWN AS
         TEMPERATURE IN CENTIGRADE
AFB    - AIR FORCE BASE
         LUKE AFB IS LUKE AIR FORCE BASE
         DAVIS-MONTHAN IS DAVIS-MONTHAN AIR FORCE BASE
NAS    - NAVAL AIR STATION
         EL CENTRO NAS IS EL CENTRO NAVAL AIR STATION
N/A    - NOT AVAILABLE


USA.gov is the U.S. government's official web portal to all federal, state and local government web resources and services.